Weather History for West Yellowstone, MT

Change the Weather History Date:

Saturday, November 10, 2012

  Actual Average Record
Temperature  
Mean Temperature 10 °F -  
Max Temperature 23 °F 34 °F 44 °F (2013)
Min Temperature -2 °F 13 °F -4 °F (2011)
Degree Days  
Heating Degree Days 54    
Moisture  
Dew Point -    
Average Humidity    
Maximum Humidity    
Minimum Humidity    
Precipitation  
Precipitation 0.00 in - - ()
Sea Level Pressure  
Sea Level Pressure 29.70 in    
Wind  
Wind Speed 4 mph (WSW)    
Max Wind Speed 14 mph    
Max Gust Speed 16 mph    
Visibility 8 miles    
Events Snow    
Averages and records for this station are not official NWS values.
T = Trace of Precipitation, MM = Missing Value Source: NWS Daily Summary

Daily Weather History Graph

Daily Weather History Graph

Search for Another Location

Airport:

Trip Planner

Search our weather history database for the weather conditions in past years. The results will help you decide how hot, cold, wet, or windy it might be!

Date:

Astronomy

Nov. 10, 2012 Rise Set
Actual Time 7:15 AM MST 5:01 PM MST
Civil Twilight 6:44 AM MST 5:32 PM MST
Nautical Twilight 6:08 AM MST 6:07 PM MST
Astronomical Twilight 5:34 AM MST 6:41 PM MST
Moon 3:16 AM MST (11/10) 2:56 PM MST (11/10)
Length of Visible Light 10h 48m
Length of Day
9h 45m
Waning Crescent, 14% of the Moon is Illuminated
Nov 10
Waning Crescent
Nov 13
New
Nov 20
First Quarter
Nov 28
Full
Dec 6
Last Quarter

Hourly Weather History & Observations

Time (MST) Temp. Windchill Dew Point Humidity Pressure Visibility Wind Dir Wind Speed Gust Speed Precip Events Conditions
12:10 AM 23.0 °F 17.0 °F - N/A% 29.60 in 7.0 mi South 4.6 mph - N/A   Overcast
12:30 AM 23.0 °F 17.0 °F - N/A% 29.59 in 10.0 mi SSW 4.6 mph - N/A   Overcast
12:50 AM 21.2 °F - - N/A% 29.59 in 7.0 mi Calm Calm - N/A   Overcast
1:10 AM 19.4 °F - - N/A% 29.59 in 5.0 mi Calm Calm - N/A Snow Light Snow
1:30 AM 19.4 °F - - N/A% 29.59 in 8.0 mi Calm Calm - N/A Snow Light Snow
1:50 AM 19.4 °F - - N/A% 29.59 in 10.0 mi Calm Calm - N/A   Overcast
2:10 AM 17.6 °F - - N/A% 29.59 in 10.0 mi Calm Calm - N/A   Overcast
2:30 AM 17.6 °F - - N/A% 29.59 in 8.0 mi Calm Calm - N/A Snow Light Snow
2:50 AM 19.4 °F 7.2 °F - N/A% 29.59 in 5.0 mi SSW 11.5 mph 16.1 mph N/A Snow Light Snow
3:10 AM 19.4 °F 6.0 °F - N/A% 29.59 in 6.0 mi SSW 13.8 mph - N/A Snow Light Snow
3:30 AM 19.4 °F 10.4 °F - N/A% 29.59 in 5.0 mi SSW 6.9 mph - N/A Snow Light Snow
3:50 AM 19.4 °F 8.6 °F - N/A% 29.59 in 7.0 mi SSW 9.2 mph - N/A Snow Light Snow
4:10 AM 19.4 °F - - N/A% 29.59 in 8.0 mi Calm Calm - N/A Snow Light Snow
4:30 AM 19.4 °F 12.8 °F - N/A% 29.59 in 6.0 mi West 4.6 mph - N/A Snow Light Snow
5:30 AM 14.0 °F 8.2 °F - N/A% 29.60 in 4.0 mi NW 3.5 mph - N/A Snow Light Snow
5:50 AM 14.0 °F 6.5 °F - N/A% 29.60 in 5.0 mi WNW 4.6 mph - N/A Snow Light Snow
6:10 AM 14.0 °F 6.5 °F - N/A% 29.60 in 5.0 mi West 4.6 mph - N/A Snow Light Snow
6:30 AM 14.0 °F 5.1 °F - N/A% 29.61 in 9.0 mi West 5.8 mph - N/A Snow Light Snow
6:50 AM 12.2 °F 2.9 °F - N/A% 29.62 in 10.0 mi West 5.8 mph - N/A Snow Light Snow
7:10 AM 12.2 °F 2.9 °F - N/A% 29.62 in 5.0 mi WSW 5.8 mph - N/A Snow Light Snow
7:30 AM 12.2 °F 6.1 °F - N/A% 29.63 in 5.0 mi WNW 3.5 mph - N/A Snow Light Snow
7:50 AM 10.4 °F -0.4 °F - N/A% 29.64 in 4.0 mi NW 6.9 mph - N/A Snow Light Snow
8:30 AM 10.4 °F 4.0 °F - N/A% 29.64 in 3.0 mi WNW 3.5 mph - N/A Snow Light Snow
8:50 AM 10.4 °F - - N/A% 29.64 in 2.0 mi Calm Calm - N/A Snow Light Snow
9:10 AM 12.2 °F 4.3 °F - N/A% 29.65 in 2.5 mi NW 4.6 mph - N/A Snow Light Snow
9:30 AM 12.2 °F 4.3 °F - N/A% 29.65 in 1.5 mi West 4.6 mph - N/A Snow Light Snow
9:50 AM 12.2 °F 2.9 °F - N/A% 29.65 in 5.0 mi West 5.8 mph - N/A Snow Light Snow
10:10 AM 14.0 °F 5.1 °F - N/A% 29.66 in 3.0 mi West 5.8 mph - N/A Snow Light Snow
10:30 AM 14.0 °F 5.1 °F - N/A% 29.66 in 3.0 mi West 5.8 mph - N/A Snow Light Snow
10:50 AM 14.0 °F 3.9 °F - N/A% 29.67 in 2.5 mi SW 6.9 mph - N/A Snow Light Snow
11:10 AM 14.0 °F 5.1 °F - N/A% 29.67 in 2.5 mi SW 5.8 mph - N/A Snow Light Snow
11:30 AM 15.8 °F 10.2 °F - N/A% 29.67 in 7.0 mi WSW 3.5 mph - N/A   Mostly Cloudy
11:50 AM 15.8 °F - - N/A% 29.67 in 7.0 mi Calm Calm - N/A   Mostly Cloudy
12:10 PM 17.6 °F 10.7 °F - N/A% 29.66 in 10.0 mi SSW 4.6 mph - N/A   Mostly Cloudy
12:30 PM 17.6 °F 7.3 °F - N/A% 29.67 in 10.0 mi NW 8.1 mph - N/A   Mostly Cloudy
12:50 PM 17.6 °F 9.3 °F - N/A% 29.67 in 10.0 mi WNW 5.8 mph - N/A   Mostly Cloudy
1:10 PM 15.8 °F 6.1 °F - N/A% 29.68 in 10.0 mi West 6.9 mph - N/A   Partly Cloudy
1:30 PM 15.8 °F 7.2 °F - N/A% 29.68 in 10.0 mi WNW 5.8 mph - N/A   Clear
1:50 PM 15.8 °F 7.2 °F - N/A% 29.69 in 10.0 mi WSW 5.8 mph - N/A   Partly Cloudy
2:10 PM 15.8 °F 4.2 °F - N/A% 29.70 in 10.0 mi WSW 9.2 mph - N/A   Clear
2:30 PM 14.0 °F 2.9 °F - N/A% 29.71 in 10.0 mi SW 8.1 mph - N/A   Partly Cloudy
2:50 PM 14.0 °F 3.9 °F - N/A% 29.72 in 10.0 mi SW 6.9 mph - N/A   Mostly Cloudy
3:10 PM 14.0 °F 6.5 °F - N/A% 29.73 in 10.0 mi SW 4.6 mph - N/A Snow Light Snow
3:30 PM 15.8 °F 10.2 °F - N/A% 29.74 in 10.0 mi West 3.5 mph - N/A   Mostly Cloudy
3:50 PM 15.8 °F - - N/A% 29.75 in 10.0 mi Calm Calm - N/A   Mostly Cloudy
4:10 PM 15.8 °F 10.2 °F - N/A% 29.76 in 10.0 mi SW 3.5 mph - N/A   Overcast
4:30 PM 14.0 °F 8.2 °F - N/A% 29.76 in 10.0 mi WSW 3.5 mph - N/A   Overcast
4:50 PM 14.0 °F 8.2 °F - N/A% 29.77 in 10.0 mi WSW 3.5 mph - N/A   Overcast
5:10 PM 14.0 °F - - N/A% 29.78 in 10.0 mi Calm Calm - N/A   Overcast
5:30 PM 12.2 °F 6.1 °F - N/A% 29.79 in 10.0 mi SW 3.5 mph - N/A   Overcast
5:50 PM 10.4 °F 2.2 °F - N/A% 29.80 in 10.0 mi SSW 4.6 mph - N/A   Mostly Cloudy
6:10 PM 8.6 °F - - N/A% 29.80 in 10.0 mi Calm Calm - N/A   Mostly Cloudy
6:30 PM 6.8 °F - - N/A% 29.81 in 10.0 mi Calm Calm - N/A   Scattered Clouds
6:50 PM 5.0 °F - - N/A% 29.82 in 10.0 mi Calm Calm - N/A   Mostly Cloudy
7:10 PM 5.0 °F - - N/A% 29.82 in 10.0 mi Calm Calm - N/A   Mostly Cloudy
7:30 PM 3.2 °F -4.2 °F - N/A% 29.82 in 10.0 mi SW 3.5 mph - N/A   Overcast
8:10 PM -0.4 °F - - N/A% 29.83 in 10.0 mi Calm Calm - N/A   Overcast
8:30 PM -0.4 °F - - N/A% 29.83 in 10.0 mi Calm Calm - N/A   Overcast
8:50 PM -0.4 °F - - N/A% 29.84 in 10.0 mi Calm Calm - N/A   Overcast
9:10 PM -0.4 °F - - N/A% 29.84 in 10.0 mi Calm Calm - N/A   Overcast
9:30 PM -0.4 °F - - N/A% 29.84 in 10.0 mi Calm Calm - N/A   Overcast
9:50 PM -0.4 °F -8.3 °F - N/A% 29.84 in 10.0 mi SSW 3.5 mph - N/A   Mostly Cloudy
10:30 PM -2.2 °F - - N/A% 29.84 in 10.0 mi Calm Calm - N/A   Mostly Cloudy
10:50 PM -2.2 °F - - N/A% 29.85 in 10.0 mi Calm Calm - N/A   Mostly Cloudy
11:10 PM -2.2 °F - - N/A% 29.85 in 10.0 mi Calm Calm - N/A   Overcast
11:30 PM -2.2 °F - - N/A% 29.85 in 10.0 mi Calm Calm - N/A   Overcast
11:50 PM -2.2 °F - - N/A% 29.86 in 10.0 mi Calm Calm - N/A   Overcast